DLH29V EDDF-LOWS

Flight info

Callsign DLH29V
Flight time 0h 41m
Altitude 29000
Route CINDY8S/18 CINDY Z74 HAREM DCT ASLEP DCT TAKUT DCT DINKU L603 OLETU T702 BADIT
Aircraft A320/M-SDE3FGHIRWY/LB1

Departure

Time 2026-05-06 20:09
Airport Frankfurt Main Airport (EDDF)

Arrival

Time 2026-05-06 20:50
Airport Salzburg Airport (LOWS)
Time Latitude Longitude Altitude Speed Heading
2026-05-06 19:35 50.04042 8.55544 347 ft 0 kts 161°
2026-05-06 20:03 50.04021 8.55555 352 ft 10 kts 161°
2026-05-06 20:03 50.03962 8.55561 348 ft 8 kts 212°
2026-05-06 20:04 50.03970 8.55469 346 ft 12 kts 327°
2026-05-06 20:04 50.04050 8.55417 351 ft 13 kts 337°
2026-05-06 20:04 50.04088 8.55302 346 ft 14 kts 252°
2026-05-06 20:04 50.04050 8.55149 352 ft 16 kts 249°
2026-05-06 20:05 50.04009 8.54978 353 ft 18 kts 250°
2026-05-06 20:05 50.03965 8.54790 352 ft 19 kts 249°
2026-05-06 20:05 50.03916 8.54588 349 ft 21 kts 250°
2026-05-06 20:05 50.03861 8.54371 352 ft 22 kts 241°
2026-05-06 20:06 50.03784 8.54159 351 ft 23 kts 250°
2026-05-06 20:06 50.03728 8.53917 348 ft 24 kts 250°
2026-05-06 20:06 50.03669 8.53667 351 ft 25 kts 249°
2026-05-06 20:06 50.03607 8.53410 353 ft 26 kts 249°
2026-05-06 20:07 50.03543 8.53144 351 ft 26 kts 249°
2026-05-06 20:07 50.03475 8.52875 353 ft 27 kts 247°
2026-05-06 20:07 50.03404 8.52635 346 ft 22 kts 225°
2026-05-06 20:07 50.03250 8.52593 348 ft 25 kts 179°
2026-05-06 20:08 50.02942 8.52595 348 ft 77 kts 179°
2026-05-06 20:08 50.02235 8.52602 346 ft 135 kts 179°
2026-05-06 20:08 50.01127 8.52612 416 ft 176 kts 181°
2026-05-06 20:08 50.00715 8.52619 629 ft 174 kts 181°
2026-05-06 20:09 50.00601 8.52621 693 ft 174 kts 181°
2026-05-06 20:09 49.99405 8.52628 1406 ft 176 kts 182°
2026-05-06 20:09 49.98152 8.52633 1949 ft 189 kts 181°
2026-05-06 20:09 49.96811 8.53190 2280 ft 214 kts 149°
2026-05-06 20:10 49.95757 8.54956 2671 ft 233 kts 117°
2026-05-06 20:10 49.95016 8.57211 3501 ft 236 kts 117°
2026-05-06 20:10 49.94230 8.59545 4047 ft 255 kts 120°
2026-05-06 20:10 49.93330 8.62045 4619 ft 272 kts 121°
2026-05-06 20:11 49.92377 8.64633 5416 ft 280 kts 122°
2026-05-06 20:11 49.91427 8.67295 6351 ft 282 kts 120°
2026-05-06 20:11 49.90527 8.70019 7217 ft 286 kts 118°
2026-05-06 20:11 49.89636 8.72800 8078 ft 289 kts 118°
2026-05-06 20:12 49.88738 8.75614 8929 ft 293 kts 118°
2026-05-06 20:12 49.87824 8.78457 9773 ft 297 kts 118°
2026-05-06 20:12 49.86877 8.81373 10267 ft 313 kts 118°
2026-05-06 20:12 49.85859 8.84491 10582 ft 333 kts 118°
2026-05-06 20:13 49.84797 8.87732 11242 ft 339 kts 118°
2026-05-06 20:13 49.83725 8.90999 12003 ft 343 kts 118°
2026-05-06 20:13 49.82636 8.94310 12784 ft 346 kts 118°
2026-05-06 20:13 49.81540 8.97638 13551 ft 349 kts 118°
2026-05-06 20:14 49.80432 9.00998 14243 ft 352 kts 118°
2026-05-06 20:14 49.79314 9.04385 14901 ft 355 kts 118°
2026-05-06 20:14 49.78186 9.07791 15572 ft 357 kts 118°
2026-05-06 20:14 49.77047 9.11228 16235 ft 360 kts 118°
2026-05-06 20:15 49.75899 9.14687 16896 ft 363 kts 118°
2026-05-06 20:15 49.74741 9.18176 17546 ft 366 kts 118°
2026-05-06 20:15 49.73572 9.21692 18187 ft 369 kts 118°
2026-05-06 20:15 49.72391 9.25233 18750 ft 372 kts 119°
2026-05-06 20:16 49.71202 9.28795 19315 ft 374 kts 119°
2026-05-06 20:16 49.70006 9.32374 19895 ft 377 kts 119°
2026-05-06 20:16 49.68799 9.35975 20469 ft 379 kts 119°
2026-05-06 20:16 49.67584 9.39598 21041 ft 381 kts 119°
2026-05-06 20:17 49.66361 9.43243 21616 ft 384 kts 119°
2026-05-06 20:17 49.65128 9.46914 22201 ft 386 kts 119°
2026-05-06 20:17 49.63888 9.50599 22776 ft 388 kts 120°
2026-05-06 20:17 49.62639 9.54309 23321 ft 391 kts 120°
2026-05-06 20:18 49.61381 9.58041 23802 ft 393 kts 120°
2026-05-06 20:18 49.60116 9.61787 24272 ft 394 kts 120°
2026-05-06 20:18 49.58847 9.65537 24730 ft 396 kts 120°
2026-05-06 20:18 49.57572 9.69303 25167 ft 397 kts 120°
2026-05-06 20:19 49.56286 9.73083 25597 ft 399 kts 121°
2026-05-06 20:19 49.54994 9.76869 26014 ft 400 kts 121°
2026-05-06 20:19 49.53691 9.80679 26427 ft 402 kts 121°
2026-05-06 20:19 49.52231 9.84346 26807 ft 401 kts 130°
2026-05-06 20:20 49.50496 9.87696 27199 ft 402 kts 132°
2026-05-06 20:20 49.48733 9.91039 27587 ft 403 kts 132°
2026-05-06 20:20 49.46960 9.94398 27967 ft 405 kts 133°
2026-05-06 20:20 49.45177 9.97774 28328 ft 407 kts 133°
2026-05-06 20:21 49.43387 10.01164 28683 ft 410 kts 133°
2026-05-06 20:21 49.41593 10.04563 28822 ft 406 kts 133°
2026-05-06 20:21 49.39851 10.07861 28836 ft 390 kts 133°
2026-05-06 20:21 49.38157 10.11060 28837 ft 384 kts 133°
2026-05-06 20:22 49.34793 10.17376 28839 ft 381 kts 133°
2026-05-06 20:22 49.31977 10.22644 28845 ft 381 kts 133°
2026-05-06 20:23 49.28620 10.28939 28850 ft 382 kts 133°
2026-05-06 20:23 49.25255 10.35224 28863 ft 382 kts 134°
2026-05-06 20:24 49.21679 10.41180 28865 ft 379 kts 140°
2026-05-06 20:24 49.17923 10.46763 28866 ft 379 kts 140°
2026-05-06 20:25 49.14117 10.52421 28868 ft 379 kts 140°
2026-05-06 20:25 49.10328 10.58045 28863 ft 380 kts 140°
2026-05-06 20:26 49.06529 10.63673 28864 ft 381 kts 140°
2026-05-06 20:26 49.02715 10.69291 28861 ft 382 kts 140°
2026-05-06 20:27 48.98885 10.74914 28865 ft 383 kts 140°
2026-05-06 20:27 48.95050 10.80544 28858 ft 383 kts 140°
2026-05-06 20:28 48.91206 10.86171 28854 ft 384 kts 140°
2026-05-06 20:28 48.87356 10.91808 28849 ft 385 kts 140°
2026-05-06 20:29 48.83502 10.97447 28842 ft 385 kts 140°
2026-05-06 20:29 48.79638 11.03076 28861 ft 386 kts 141°
2026-05-06 20:30 48.73817 11.11517 28863 ft 386 kts 141°
2026-05-06 20:31 48.69930 11.17135 28863 ft 387 kts 141°
2026-05-06 20:31 48.65997 11.22803 28264 ft 389 kts 141°
2026-05-06 20:31 48.64105 11.25719 27775 ft 388 kts 134°
2026-05-06 20:32 48.62472 11.28961 27287 ft 386 kts 131°
2026-05-06 20:32 48.60868 11.32197 26818 ft 383 kts 131°
2026-05-06 20:32 48.59335 11.35283 26373 ft 380 kts 131°
2026-05-06 20:32 48.57734 11.38501 25906 ft 377 kts 131°
2026-05-06 20:33 48.56166 11.41654 25454 ft 374 kts 130°
2026-05-06 20:33 48.54608 11.44778 25009 ft 371 kts 130°
2026-05-06 20:33 48.53059 11.47876 24576 ft 368 kts 130°
2026-05-06 20:33 48.51519 11.50947 24137 ft 365 kts 130°
2026-05-06 20:34 48.49992 11.53991 23719 ft 363 kts 129°
2026-05-06 20:34 48.48477 11.57015 23261 ft 360 kts 129°
2026-05-06 20:34 48.47043 11.60094 22777 ft 359 kts 122°
2026-05-06 20:34 48.45990 11.63504 22288 ft 360 kts 112°
2026-05-06 20:35 48.45149 11.67053 21811 ft 358 kts 113°
2026-05-06 20:35 48.44305 11.70574 21337 ft 356 kts 113°
2026-05-06 20:35 48.43460 11.74070 20872 ft 354 kts 113°
2026-05-06 20:35 48.42626 11.77502 20422 ft 353 kts 114°
2026-05-06 20:36 48.41787 11.80959 19967 ft 351 kts 114°
2026-05-06 20:36 48.40941 11.84456 19519 ft 350 kts 114°
2026-05-06 20:36 48.40121 11.87847 19093 ft 349 kts 114°
2026-05-06 20:36 48.39292 11.91264 18662 ft 347 kts 114°
2026-05-06 20:37 48.38451 11.94721 18233 ft 346 kts 114°
2026-05-06 20:37 48.37632 11.98071 17751 ft 345 kts 114°
2026-05-06 20:37 48.36801 12.01460 17271 ft 345 kts 114°
2026-05-06 20:37 48.35974 12.04842 16788 ft 344 kts 114°
2026-05-06 20:38 48.35149 12.08217 16326 ft 344 kts 114°
2026-05-06 20:38 48.34323 12.11590 15861 ft 344 kts 114°
2026-05-06 20:38 48.33496 12.14962 15410 ft 344 kts 114°
2026-05-06 20:38 48.32669 12.18331 14965 ft 344 kts 114°
2026-05-06 20:39 48.31841 12.21700 14519 ft 343 kts 114°
2026-05-06 20:39 48.31011 12.25062 14087 ft 343 kts 114°
2026-05-06 20:39 48.30170 12.28466 13642 ft 343 kts 114°
2026-05-06 20:39 48.29340 12.31817 13165 ft 342 kts 114°
2026-05-06 20:40 48.28521 12.35116 12694 ft 341 kts 114°
2026-05-06 20:40 48.27692 12.38451 12227 ft 340 kts 114°
2026-05-06 20:40 48.26865 12.41770 11767 ft 339 kts 114°
2026-05-06 20:40 48.26043 12.45078 11307 ft 338 kts 114°
2026-05-06 20:41 48.25224 12.48374 10867 ft 336 kts 114°
2026-05-06 20:41 48.24409 12.51647 10419 ft 334 kts 114°
2026-05-06 20:41 48.23596 12.54898 9985 ft 332 kts 114°
2026-05-06 20:41 48.22784 12.58141 9531 ft 331 kts 114°
2026-05-06 20:42 48.21981 12.61362 9054 ft 329 kts 114°
2026-05-06 20:42 48.21182 12.64573 8579 ft 327 kts 114°
2026-05-06 20:42 48.20389 12.67756 8173 ft 324 kts 114°
2026-05-06 20:42 48.19603 12.70895 7819 ft 319 kts 114°
2026-05-06 20:43 48.18825 12.73980 7472 ft 315 kts 114°
2026-05-06 20:43 48.18058 12.77021 7123 ft 310 kts 113°
2026-05-06 20:43 48.17192 12.79942 6780 ft 303 kts 125°
2026-05-06 20:43 48.15875 12.82330 6440 ft 293 kts 143°
2026-05-06 20:44 48.14219 12.83999 6090 ft 284 kts 160°
2026-05-06 20:44 48.12369 12.84917 5731 ft 278 kts 173°
2026-05-06 20:44 48.10485 12.85584 5469 ft 279 kts 172°
2026-05-06 20:44 48.08592 12.86265 5218 ft 280 kts 172°
2026-05-06 20:45 48.06708 12.86945 4971 ft 279 kts 172°
2026-05-06 20:45 48.04813 12.87631 4719 ft 280 kts 172°
2026-05-06 20:45 48.02920 12.88315 4450 ft 280 kts 173°
2026-05-06 20:45 48.01034 12.88997 4206 ft 277 kts 173°
2026-05-06 20:46 47.99164 12.89315 4034 ft 268 kts 185°
2026-05-06 20:46 47.97301 12.89385 4000 ft 269 kts 182°
2026-05-06 20:46 47.95470 12.90079 4002 ft 272 kts 164°
2026-05-06 20:46 47.93794 12.91180 4001 ft 254 kts 161°
2026-05-06 20:47 47.92233 12.92218 3965 ft 239 kts 163°
2026-05-06 20:47 47.90722 12.93182 3710 ft 233 kts 163°
2026-05-06 20:47 47.89265 12.94106 3417 ft 220 kts 163°
2026-05-06 20:47 47.87926 12.94959 3168 ft 200 kts 163°
2026-05-06 20:48 47.86703 12.95735 2859 ft 183 kts 163°
2026-05-06 20:48 47.85575 12.96448 2619 ft 168 kts 163°
2026-05-06 20:48 47.84558 12.97091 2432 ft 153 kts 161°
2026-05-06 20:48 47.83592 12.97691 2146 ft 150 kts 158°
2026-05-06 20:49 47.82638 12.98319 1968 ft 150 kts 158°
2026-05-06 20:49 47.81676 12.98919 1759 ft 150 kts 159°
2026-05-06 20:49 47.80715 12.99525 1538 ft 150 kts 159°
2026-05-06 20:49 47.79780 13.00113 1421 ft 134 kts 158°
2026-05-06 20:50 47.79069 13.00556 1418 ft 92 kts 157°
2026-05-06 20:50 47.78654 13.00823 1421 ft 26 kts 156°
2026-05-06 20:50 47.78547 13.00788 1422 ft 16 kts 249°
2026-05-06 20:50 47.78543 13.00640 1422 ft 15 kts 306°
2026-05-06 20:51 47.78636 13.00565 1422 ft 16 kts 336°
2026-05-06 20:51 47.78741 13.00491 1421 ft 18 kts 331°
2026-05-06 20:51 47.78845 13.00416 1421 ft 16 kts 351°
2026-05-06 20:51 47.78949 13.00347 1421 ft 17 kts 296°
2026-05-06 20:52 47.78969 13.00183 1422 ft 15 kts 285°
2026-05-06 20:52 47.79049 13.00096 1422 ft 14 kts 337°
2026-05-06 20:52 47.79145 13.00037 1422 ft 16 kts 337°
2026-05-06 20:52 47.79233 12.99972 1422 ft 12 kts 311°
2026-05-06 20:53 47.79255 12.99854 1422 ft 10 kts 282°
2026-05-06 20:53 47.79258 12.99831 1422 ft 0 kts 282°